ATLAS 5 CENTAUR DEB, 46657

Orbit data source: Space-Track

ATLAS 5 CENTAUR DEB, 46657 is space debris in HEO originally from a launch on Wed, 17 Oct 2018 UTC launched from the Air Force Eastern Test Range (AFETR). Debris objects in space refer to the collection of defunct objects orbiting the Earth. Examples of debris include non-operational satellites, rocket bodies, and fragments generated from explosions, collisions, or faulty payload assembly.

Loading next visibility...
Identifier
46657, 2018-079CK
Orbit
HEO
Country
Flag of USUS
Related business
Flag of USUnited Launch Alliance/Lockheed Martin (US)
Manufacturer
ULA Decatur
Mission
Spacecraft
Bus & Motor
Unknown
Mass
Unknown
Launch date (UTC)
2018-10-17 (7 years ago)
Launch vehicle
Unknown
Launch site
Air Force Eastern Test Range (AFETR)
Object type
Payload
Rocket body
Debris
Shape & HBR
Unknown shape, 1.1 m
Radar Cross Section
Medium (>0.1 m² and <1 m²)

Expand to show TLE details & history
Last TLE update: 18 hours ago

TLE from 18 hours ago
0 ATLAS 5 CENTAUR DEB
1 46657U 18079CK  25301.28783832 -.00000087  00000-0  00000-0 0  9991
2 46657  12.2464  40.8851 5185411 296.3059  20.1940  1.69745184 31380
Epoch: 2025-10-28T06:54Z
TLE epoch observation values (Epoch: 2025-10-28T06:54:29.230Z)
Latitude
0.00002°
Longitude
-99.67514°
Altitude
11,267.192 km
Speed
5.635 km/s
True Right ascension
02h 43m 17s
True Declination
0° 00' 00"
Sunlit
Object was in full shadow at epoch
Visualization orbit readout
Latitude
Unknown
Longitude
Unknown
Altitude
Unknown
Speed
Unknown
Apparent Right ascension
Unknown
Apparent Declination
Unknown
Sunlit
N/A
Visualization observer readout
Local Sidereal Time
20:19:54
Azimuth
Unknown
Elevation
Unknown
Doppler factor
Unknown
Orbital elements
Apogee altitude
38,703.125 km
Perigee altitude
7,915.039 km
Semi-major axis
29,687.219 km
Eccentricity
0.51854
Inclination
12.2464°
RAAN
40.8851°
Arg. of periapsis
296.3059°
True anomaly
64.07032°
Mean anomaly
20.194°
Eccentric anomaly
38.81768°
Mean motion
0.42432 °/min
Orbital period
848.43 mins
BSTAR
0
Loading maneuver chart data...
Computing Atmospheric mass density...

Documentation

Showing up to 5 results
|